Location: Maiden
(35.5760°N, 81.2120°W)
Time: 02:46:03
(UTC-04:00)

USA 234 - Pass Details

Date: 02 August 2020
Orbit: 1101 x 1106 km, 123.0° (Epoch: 09 August)

Event Time Altitude Azimuth Distance (km) Brightness Sun altitude
Exits shadow 22:33:02 39° 116° (ESE) 1,594 3.6 -22.3°
Maximum altitude 22:35:39 72° 43° (NE) 1,155 3.3 -22.7°
Drops below altitude 10° 22:42:09 10° 321° (NW) 2,961 6.6 -23.6°
Sets 22:44:38 0° 319° (NW) 3,921 7.6 -24.0°
